Flag for Norway Weather past 2 weeks in Svolvær, Norway

Now
46 °F

Passing clouds.


Feels Like: 42 °F
Forecast: 48 / 54 °F
Wind: 8 mph from Southeast

Location: Svolvaer / Helle

Current Time: Sep 30, 2014 at 6:50:25 PM

Latest Report: Sep 30, 2014 at 5:50 PM


Visibility: N/A

Pressure: 30.24 "Hg

Humidity: 76%

Dew point: 39 °F

Location of SvolværLocation

Historic Weather in Svolvær — Graph

°F

Svolvær temperature yesterday

Maximum temperature yesterday: 48 °F (at 4:20 AM)
Minimum temperature yesterday: 43 °F (at 4:50 PM)
Average temperature yesterday: 46 °F

Past Weeks' High & Low Weather Summary

 TemperatureHumidityPressure
High57 °F (Sep 16, 4:50 PM)87% (Sep 16, 8:50 AM)30.42 "Hg (Sep 16, 8:50 AM)
Low37 °F (Sep 22, 7:50 AM)70% (Sep 24, 4:20 AM)28.59 "Hg (Sep 27, 4:20 AM)
Average46 °F76%29.84 "Hg
* Reported Sep 15 5:50 PM — Sep 30 4:50 PM, Svolvær, Weather by CustomWeather, © 2014

Note: Actual official high and low records may vary slightly from our data, if they occured in-between our weather recording intervals... More about our weather records

Advertising

Svolvær weather history for previous 24 hours

 ConditionsComfort  
Time TempWeatherWind HumidityBarometerVisibility
4:50 PM
Sep 30
46 °FPassing clouds.9 mph76%30.27 "HgN/A
3:50 PM46 °FPartly sunny.9 mph76%30.27 "HgN/A
2:50 PM46 °FPartly sunny.9 mph76%30.27 "HgN/A
1:50 PM46 °FPassing clouds.10 mph76%30.27 "HgN/A
12:50 PM46 °FPassing clouds.10 mph76%30.27 "HgN/A
11:50 AM46 °FPassing clouds.9 mph76%30.27 "HgN/A
10:50 AM46 °FPassing clouds.5 mph76%30.27 "HgN/A
9:50 AM45 °FPassing clouds.3 mph76%30.27 "HgN/A
8:50 AM43 °FPassing clouds.5 mph76%30.27 "HgN/A
7:50 AM37 °FPassing clouds.7 mph81%30.24 "HgN/A
6:50 AM41 °FPassing clouds.10 mph76%30.24 "HgN/A
5:50 AM41 °FPassing clouds.8 mph76%30.21 "HgN/A
4:50 AM43 °FPassing clouds.3 mph76%30.21 "HgN/A
4:20 AM43 °FPassing clouds.5 mph76%30.18 "HgN/A
9:50 PM
Sep 29
45 °FRain showers. Passing clouds.13 mph76%29.98 "HgN/A
8:50 PM45 °FRain showers. Passing clouds.13 mph76%29.95 "HgN/A
7:50 PM46 °FScattered showers. Passing clouds.20 mph76%29.92 "HgN/A
6:50 PM46 °FScattered showers. Partly sunny.16 mph76%29.89 "HgN/A
Weather by CustomWeather, © 2014

See weather overviewHow to use our weather pages